• Join FlightAware (Why Join?)
  • Login
  • US Flag 
10:53AM EDT


 

Airport Tracker/Info


-or-


 

Live Flight TrackerFlight Track Log ✈ AWI3688 ✈ 02-May-2013 ✈ KALB - KPHL

Flight Track Log - Related Links

Times and Time Zones

All times are in EDT time to prevent confusion due to time zone crossing. See the AWI3688 flight status page for this flight to view local times or setup timezone preferences in your user account.

Time Position Orientation Groundspeed Altitude Reporting Facility
EDT Latitude Longitude Course Direction KTS MPH feet Rate Location/Type
02:23PM 42.7672 -73.8061 219° Southwest 153 176 1,100  Level Boston Center
02:24PM 42.7903 -73.8122 349° North 163 188 2,000 1,800 Climbing Boston Center
02:25PM 42.8019 -73.8833 283° West 222 255 3,800 1,860 Climbing Boston Center
02:26PM 42.6766 -74.3785 220° Southwest  Level FlightAware Approximate
02:26PM 42.7881 -73.9847 259° West 252 290 5,800  Level Boston Center
02:27PM 42.5901 -74.4758 220° Southwest  Level FlightAware Approximate
02:27PM 42.7739 -74.0892 260° West 271 312 8,300  Level Boston Center
02:28PM 42.5067 -74.5777 219° Southwest  Level FlightAware Approximate
02:28PM 42.7622 -74.1878 261° West 295 339 10,500  Level Boston Center
02:29PM 42.4200 -74.6742 219° Southwest  Level FlightAware Approximate
02:29PM 42.7392 -74.3144 256° West 307 353 12,600  Level Boston Center
02:30PM 42.6775 -74.3886 221° Southwest 309 356 14,700 2,100 Climbing Boston Center
02:31PM 42.5967 -74.4792 220° Southwest 331 381 16,900 1,620 Climbing Boston Center
02:32PM 42.5308 -74.5561 221° Southwest 347 399 18,000 540 Climbing Boston Center
02:33PM 42.4433 -74.6572 220° Southwest 370 426 18,000  Level Boston Center
02:34PM 42.3125 -74.8089 221° Southwest 382 440 18,000  Level New York Center
02:35PM 42.2283 -74.8989 218° Southwest 388 447 18,000  Level New York Center
02:36PM 42.1547 -74.9781 219° Southwest 388 447 18,000  Level New York Center
02:37PM 42.0581 -75.0614 213° Southwest 383 441 18,000  Level New York Center
02:38PM 41.9681 -75.1336 211° Southwest 383 441 18,000  Level New York Center
02:39PM 41.8867 -75.1978 210° Southwest 383 441 18,000 -60 Level New York Center
02:40PM 41.7856 -75.2803 211° Southwest 378 435 17,900 -840 Descending New York Center
02:41PM 41.6953 -75.3547 212° Southwest 388 447 16,400 -1,500 Descending New York Center
02:42PM 41.6031 -75.4286 211° Southwest 388 447 14,900 -1,680 Descending New York Center
02:43PM 41.5236 -75.4897 210° Southwest 383 441 13,100 -1,440 Descending New York Center
02:44PM 41.4439 -75.5533 211° Southwest 366 421 12,000 -600 Descending New York Center
02:45PM 41.3642 -75.6194 212° Southwest 347 399 11,900  Descending New York Center
02:46PM 41.2636 -75.6839 206° Southwest 355 409 12,000  Climbing New York Center
02:47PM 41.1656 -75.6878 182° South 355 409 11,900 -60 Descending New York Center
02:48PM 41.0656 -75.6889 180° South 360 414 11,900  Level New York Center
02:49PM 40.9739 -75.6878 179° South 368 423 12,000  Climbing New York Center
02:50PM 40.8758 -75.6889 180° South 363 418 12,000 -180 Level New York Center
02:51PM 40.7703 -75.6703 172° South 363 418 11,700 -780 Descending New York Center
02:52PM 40.6872 -75.6125 152° Southeast 341 392 10,500 -900 Descending New York Center
02:53PM 40.6186 -75.5583 149° Southeast 326 375 10,000 -300 Descending New York Center
02:54PM 40.5478 -75.5069 151° Southeast 308 354 10,000 -360 Level New York Center
02:55PM 40.4750 -75.4528 150° Southeast 278 320 9,300 -480 Descending New York Center
02:56PM 40.4031 -75.4261 164° South 273 314 9,100 -360 Descending New York Center
02:57PM 40.3300 -75.4267 180° South 280 322 8,600 -660 Descending New York Center
02:58PM 40.2531 -75.4269 180° South 285 328 7,800 -960 Descending New York Center
02:59PM 40.1739 -75.4269 180° South 295 339 6,700 -1,680 Descending New York Center
03:00PM 40.0925 -75.4269 180° South 279 321 4,500 -1,380 Descending New York Center
03:01PM 40.0311 -75.3958 159° South 262 302 4,000 -300 Descending New York Center
03:02PM 39.9636 -75.3614 159° South 240 276 4,000 -120 Level New York Center
03:03PM 39.9500 -75.3500 147° Southeast 201 231 3,900  Descending Philadelphia TRACON
03:04PM 39.9000 -75.3333 166° South 203 234 4,000  Climbing Philadelphia TRACON
03:05PM 39.8500 -75.3000 153° Southeast 198 228 4,000 -480 Level Philadelphia TRACON
03:06PM 39.8000 -75.2667 153° Southeast 191 220 3,100 -900 Descending Philadelphia TRACON
03:07PM 39.7500 -75.2500 166° South 190 219 2,200 -1,020 Descending Philadelphia TRACON